User: anonymous   Login
Location: Unspecified
(0.0000°N, 0.0000°E)
Time: 05:41:56
(UTC+00:00)
Language:

Hubble Space Telescope - Orbit

View from above orbital plane
View from above orbital plane
View from above satellite
View from above satellite

Ground track
Ground track

The orbit data is extracted from the following two-line orbital elements,

1 20580U 90037B   17228.54609448  .00000490  00000-0  19210-4 0  9994
2 20580  28.4704 328.6695 0002931 100.7947  10.4726 15.08815989299402
Epoch (UTC): 16 August 2017 13:06:22
Eccentricity: 0.0002931
inclination: 28.4704°
perigee height: 538 km
apogee height: 542 km
right ascension of ascending node: 328.6695°
argument of perigee: 100.7947°
revolutions per day: 15.08815989
mean anomaly at epoch: 10.4726°
orbit number at epoch: 29940

The dashed part of the orbit path shows where the satellite is in the earth's shadow,  

DLR